GPS BIIRM-8 (PRN 05) (35752 NORAD) Tracking and Keplerian Element Data

This shows tracking and keplerian element data for the satellite.

Feedback or suggestion? Click here.




ElementValue
Catalog35752
NameGPS BIIRM-8 (PRN 05)
Epoch Orbit6842
Epoch Day352.02577684
Epoch Year2018
RAAN137.2516
Inclination54.3706
Eccentricity0.0054324
Argument of Perigee39.7232
Mean Anonmoly45.8317
Mean Motion2.00572572
Decay Rate6.8E-07
L11 35752U 09043A 18352.02577684 .00000068 00000-0 00000+0 0 9999
L22 35752 54.3706 137.2516 0054324 39.7232 45.8317 2.00572572 68426

Live tracking and technical data element details for GPS BIIRM-8 (PRN 05) (NORAD 35752). GPS BIIRM-8 (PRN 05) can be tracked NOW for your location showing map with azimuth and elevation plus other details from your city location.

Track the satellite on the map from your city or location and see movement details for azimuth, elevation, latitude, longitude, range, height, and movement on the map or in text.







IsCatalogInMostPopularTable: catalog: 35752, numindb: 96
Update: records affected: 1



GetName: 35752 GPS BIIRM-8 (PRN 05)

Hit Count: updated at: Wed, 19 Dec 2018 15:13:39 GMT